This is the latest recevied weather packets stored in our database for station/object KK7DS. If no packets are shown the sender has not sent any weather packets the latest 10 day(s).
| Time | Temp. | Humidity | Pressure | Rain* | Wind** | Luminosity | Snow |
|---|---|---|---|---|---|---|---|
| 1777932665 | 19.44° C | 68% | 1012.4 hPa | 0 mm | - | - | - |
| 1777932165 | 20° C | 68% | 1012.4 hPa | 0 mm | - | - | - |
| 1777931590 | 20° C | 67% | 1012.6 hPa | 0 mm | - | - | - |
| 1777930995 | 19.44° C | 70% | 1012.7 hPa | 0 mm | - | - | - |
| 1777930490 | 18.89° C | 70% | 1012.9 hPa | 0 mm | - | - | - |
| 1777929987 | 18.89° C | 69% | 1013 hPa | 0 mm | - | - | - |
| 1777929430 | 18.89° C | 70% | 1013.2 hPa | 0 mm | - | - | - |
| 1777928900 | 18.33° C | 71% | 1013.3 hPa | 0 mm | - | - | - |
| 1777928405 | 18.33° C | 71% | 1013.5 hPa | 0 mm | - | - | - |
| 1777927310 | 17.78° C | 73% | 1013.5 hPa | 0 mm | - | - | - |
| 1777926810 | 17.78° C | 74% | 1013.6 hPa | 0 mm | - | - | - |
| 1777926288 | 17.22° C | 75% | 1013.7 hPa | 0 mm | - | - | - |
| 1777925735 | 17.22° C | 75% | 1013.8 hPa | 0 mm | - | - | - |
| 1777925235 | 16.67° C | 76% | 1013.8 hPa | 0 mm | - | - | - |
| 1777924710 | 16.67° C | 76% | 1013.9 hPa | 0 mm | - | - | - |
| 1777924115 | 16.11° C | 79% | 1013.9 hPa | 0 mm | - | - | - |
| 1777923034 | 15.56° C | 79% | 1013.9 hPa | 0 mm | - | - | - |
| 1777922470 | 15° C | 80% | 1014 hPa | 0 mm | - | - | - |
| 1777921945 | 15° C | 79% | 1014.1 hPa | 0 mm | - | - | - |
| 1777921440 | 15° C | 81% | 1014.1 hPa | 0 mm | - | - | - |
| 1777920875 | 14.44° C | 83% | 1014.2 hPa | 0 mm | - | - | - |
| 1777920377 | 14.44° C | 82% | 1014.1 hPa | 0 mm | - | - | - |
| 1777919874 | 13.89° C | 83% | 1014.1 hPa | 0 mm | - | - | - |
| 1777919315 | 13.89° C | 85% | 1014.1 hPa | 0 mm | - | - | - |
| 1777918245 | 13.33° C | 84% | 1014.1 hPa | 0 mm | - | - | - |
* Rain latest hour (hover to see other rain measurements)
** Current wind speed in m/s (hover to see current wind gust speed)